2007,7,1,1,-6.521
2007,7,1,2,-6.381
2007,7,1,3,-6.504
2007,7,1,4,-6.580
2007,7,1,5,-6.454
2007,7,1,6,-6.978
2007,7,1,7,-7.245
2007,7,1,8,-6.959
2007,7,1,9,-6.491
2007,7,1,10,-5.540
2007,7,1,11,-4.743
2007,7,1,12,-4.135
2007,7,1,13,-3.314
2007,7,1,14,-3.098
2007,7,1,15,-3.041
2007,7,1,16,-3.575
2007,7,1,17,-3.485
2007,7,1,18,-3.827
2007,7,1,19,-4.191
2007,7,1,20,-4.383
2007,7,1,21,-4.932
2007,7,1,22,-4.896
2007,7,1,23,-5.042
2007,7,1,24,-5.072
2007,7,2,1,-4.938
2007,7,2,2,-5.141
2007,7,2,3,-5.300
2007,7,2,4,-5.233
2007,7,2,5,-5.269
2007,7,2,6,-5.511
2007,7,2,7,-6.351
2007,7,2,8,-6.560
2007,7,2,9,-5.800
2007,7,2,10,-4.709
2007,7,2,11,-3.838
2007,7,2,12,-3.381
2007,7,2,13,-2.949
2007,7,2,14,-3.097
2007,7,2,15,-3.575
2007,7,2,16,-4.117
2007,7,2,17,-5.027
2007,7,2,18,-5.500
2007,7,2,19,-5.897
2007,7,2,20,-6.044
2007,7,2,21,-5.738
2007,7,2,22,-5.875
2007,7,2,23,-6.235
2007,7,2,24,-6.766
2007,7,3,1,-6.570
2007,7,3,2,-6.419
2007,7,3,3,-6.821
2007,7,3,4,-7.242
2007,7,3,5,-7.423
2007,7,3,6,-7.599
2007,7,3,7,-7.267
2007,7,3,8,-6.448
2007,7,3,9,-5.538
2007,7,3,10,-4.595
2007,7,3,11,-3.248
2007,7,3,12,-2.462
2007,7,3,13,-2.286
2007,7,3,14,-2.371
2007,7,3,15,-2.263
2007,7,3,16,-2.438
2007,7,3,17,-3.486
2007,7,3,18,-5.255
2007,7,3,19,-4.816
2007,7,3,20,-4.150
2007,7,3,21,-4.158
2007,7,3,22,-4.156
2007,7,3,23,-4.048
2007,7,3,24,-4.602
2007,7,4,1,-5.547
2007,7,4,2,-5.408
2007,7,4,3,-6.597
2007,7,4,4,-6.758
2007,7,4,5,-6.975
2007,7,4,6,-7.041
2007,7,4,7,-7.358
2007,7,4,8,-6.980
2007,7,4,9,-6.540
2007,7,4,10,-5.911
2007,7,4,11,-4.659
2007,7,4,12,-3.313
2007,7,4,13,-2.015
2007,7,4,14,-1.568
2007,7,4,15,-2.256
2007,7,4,16,-2.904
2007,7,4,17,-4.049
2007,7,4,18,-5.049
2007,7,4,19,-5.762
2007,7,4,20,-6.035
2007,7,4,21,-5.857
2007,7,4,22,-6.104
2007,7,4,23,-6.700
2007,7,4,24,-7.343
2007,7,5,1,-7.571
2007,7,5,2,-7.939
2007,7,5,3,-7.910
2007,7,5,4,-7.892
2007,7,5,5,-7.695
2007,7,5,6,-7.993
2007,7,5,7,-7.924
2007,7,5,8,-7.495
2007,7,5,9,-6.660
2007,7,5,10,-5.700
2007,7,5,11,-5.091
2007,7,5,12,-4.652
2007,7,5,13,-4.386
2007,7,5,14,-4.141
2007,7,5,15,-3.975
2007,7,5,16,-4.263
2007,7,5,17,-4.638
2007,7,5,18,-5.701
2007,7,5,19,-6.551
2007,7,5,20,-7.272
2007,7,5,21,-7.294
2007,7,5,22,-7.270
2007,7,5,23,-7.633
2007,7,5,24,-7.535
2007,7,6,1,-7.571
2007,7,6,2,-6.836
2007,7,6,3,-6.951
2007,7,6,4,-7.680
2007,7,6,5,-7.922
2007,7,6,6,-7.570
2007,7,6,7,-6.500
2007,7,6,8,-5.362
2007,7,6,9,-5.271
2007,7,6,10,-5.106
2007,7,6,11,-4.008
2007,7,6,12,-3.105
2007,7,6,13,-2.858
2007,7,6,14,-2.586
2007,7,6,15,-2.707
2007,7,6,16,-3.199
2007,7,6,17,-3.699
2007,7,6,18,-5.012
2007,7,6,19,-6.180
2007,7,6,20,-6.824
2007,7,6,21,-6.867
2007,7,6,22,-6.392
2007,7,6,23,-6.719
2007,7,6,24,-7.541
2007,7,7,1,-7.804
2007,7,7,2,-7.700
2007,7,7,3,-8.081
2007,7,7,4,-8.719
2007,7,7,5,-8.827
2007,7,7,6,-8.847
2007,7,7,7,-8.959
2007,7,7,8,-8.070
2007,7,7,9,-7.229
2007,7,7,10,-5.803
2007,7,7,11,-4.952
2007,7,7,12,-4.409
2007,7,7,13,-3.707
2007,7,7,14,-4.050
2007,7,7,15,-4.529
2007,7,7,16,-4.846
2007,7,7,17,-4.919
2007,7,7,18,-5.664
2007,7,7,19,-6.303
2007,7,7,20,-6.642
2007,7,7,21,-7.185
2007,7,7,22,-7.376
2007,7,7,23,-7.827
2007,7,7,24,-7.636
2007,7,8,1,-7.196
2007,7,8,2,-8.065
2007,7,8,3,-8.479
2007,7,8,4,-8.455
2007,7,8,5,-8.468
2007,7,8,6,-8.819
2007,7,8,7,-8.817
2007,7,8,8,-7.775
2007,7,8,9,-7.103
2007,7,8,10,-7.375
2007,7,8,11,-6.858
2007,7,8,12,-5.934
2007,7,8,13,-5.917
2007,7,8,14,-5.706
2007,7,8,15,-6.155
2007,7,8,16,-6.609
2007,7,8,17,-6.503
2007,7,8,18,-6.707
2007,7,8,19,-7.930
2007,7,8,20,-8.334
2007,7,8,21,-8.242
2007,7,8,22,-7.820
2007,7,8,23,-7.839
2007,7,8,24,-8.036
2007,7,9,1,-8.392
2007,7,9,2,-8.625
2007,7,9,3,-8.564
2007,7,9,4,-8.364
2007,7,9,5,-8.359
2007,7,9,6,-8.482
2007,7,9,7,-8.589
2007,7,9,8,-8.379
2007,7,9,9,-8.176
2007,7,9,10,-8.494
2007,7,9,11,-8.521
2007,7,9,12,-8.231
2007,7,9,13,-8.131
2007,7,9,14,-7.365
2007,7,9,15,-7.047
2007,7,9,16,-7.229
2007,7,9,17,-7.382
2007,7,9,18,-7.210
2007,7,9,19,-7.196
2007,7,9,20,-7.631
2007,7,9,21,-7.144
2007,7,9,22,-7.092
2007,7,9,23,-7.133
2007,7,9,24,-7.147
2007,7,10,1,-7.276
2007,7,10,2,-7.333
2007,7,10,3,-7.321
2007,7,10,4,-7.545
2007,7,10,5,-7.620
2007,7,10,6,-7.534
2007,7,10,7,-7.477
2007,7,10,8,-7.298
2007,7,10,9,-7.574
2007,7,10,10,-7.359
2007,7,10,11,-7.462
2007,7,10,12,-7.477
2007,7,10,13,-7.815
2007,7,10,14,-7.545
2007,7,10,15,-7.260
2007,7,10,16,-6.943
2007,7,10,17,-7.578
2007,7,10,18,-7.522
2007,7,10,19,-7.228
2007,7,10,20,-7.051
2007,7,10,21,-6.963
2007,7,10,22,-6.898
2007,7,10,23,-6.911
2007,7,10,24,-7.368
2007,7,11,1,-7.613
2007,7,11,2,-7.496
2007,7,11,3,-7.680
2007,7,11,4,-8.165
2007,7,11,5,-8.444
2007,7,11,6,-8.572
2007,7,11,7,-8.521
2007,7,11,8,-8.486
2007,7,11,9,-8.185
2007,7,11,10,-7.773
2007,7,11,11,-7.382
2007,7,11,12,-6.999
2007,7,11,13,-6.310
2007,7,11,14,-6.107
2007,7,11,15,-5.962
2007,7,11,16,-5.868
2007,7,11,17,-6.107
2007,7,11,18,-6.401
2007,7,11,19,-6.454
2007,7,11,20,-7.290
2007,7,11,21,-6.913
2007,7,11,22,-6.858
2007,7,11,23,-8.009
2007,7,11,24,-8.105
2007,7,12,1,-8.104
2007,7,12,2,-7.785
2007,7,12,3,-7.866
2007,7,12,4,-7.956
2007,7,12,5,-8.278
2007,7,12,6,-8.501
2007,7,12,7,-8.947
2007,7,12,8,-8.863
2007,7,12,9,-8.346
2007,7,12,10,-7.512
2007,7,12,11,-6.819
2007,7,12,12,-6.131
2007,7,12,13,-5.499
2007,7,12,14,-4.355
2007,7,12,15,-4.151
2007,7,12,16,-4.283
2007,7,12,17,-4.522
2007,7,12,18,-5.585
2007,7,12,19,-6.084
2007,7,12,20,-6.413
2007,7,12,21,-6.893
2007,7,12,22,-6.649
2007,7,12,23,-6.414
2007,7,12,24,-6.400
2007,7,13,1,-6.804
2007,7,13,2,-7.899
2007,7,13,3,-8.171
2007,7,13,4,-8.223
2007,7,13,5,-8.154
2007,7,13,6,-8.986
2007,7,13,7,-9.526
2007,7,13,8,-9.298
2007,7,13,9,-8.808
2007,7,13,10,-8.050
2007,7,13,11,-7.217
2007,7,13,12,-5.712
2007,7,13,13,-4.523
2007,7,13,14,-4.024
2007,7,13,15,-3.994
2007,7,13,16,-4.292
2007,7,13,17,-4.905
2007,7,13,18,-5.985
2007,7,13,19,-6.562
2007,7,13,20,-7.153
2007,7,13,21,-6.634
2007,7,13,22,-7.082
2007,7,13,23,-8.061
2007,7,13,24,-8.181
2007,7,14,1,-8.031
2007,7,14,2,-8.219
2007,7,14,3,-7.919
2007,7,14,4,-7.702
2007,7,14,5,-7.533
2007,7,14,6,-7.468
2007,7,14,7,-7.525
2007,7,14,8,-7.486
2007,7,14,9,-7.176
2007,7,14,10,-6.030
2007,7,14,11,-5.324
2007,7,14,12,-4.941
2007,7,14,13,-4.349
2007,7,14,14,-4.115
2007,7,14,15,-3.836
2007,7,14,16,-3.828
2007,7,14,17,-4.560
2007,7,14,18,-5.691
2007,7,14,19,-6.377
2007,7,14,20,-6.644
2007,7,14,21,-7.103
2007,7,14,22,-6.869
2007,7,14,23,-7.134
2007,7,14,24,-7.381
2007,7,15,1,-7.198
2007,7,15,2,-7.660
2007,7,15,3,-8.513
2007,7,15,4,-8.283
2007,7,15,5,-8.477
2007,7,15,6,-8.712
2007,7,15,7,-8.713
2007,7,15,8,-8.709
2007,7,15,9,-8.178
2007,7,15,10,-7.540
2007,7,15,11,-6.369
2007,7,15,12,-5.127
2007,7,15,13,-4.177
2007,7,15,14,-4.099
2007,7,15,15,-3.995
2007,7,15,16,-3.916
2007,7,15,17,-4.991
2007,7,15,18,-6.189
2007,7,15,19,-6.886
2007,7,15,20,-7.212
2007,7,15,21,-7.520
2007,7,15,22,-7.376
2007,7,15,23,-7.498
2007,7,15,24,-7.468
2007,7,16,1,-7.801
2007,7,16,2,-8.054
2007,7,16,3,-8.337
2007,7,16,4,-8.631
2007,7,16,5,-8.878
2007,7,16,6,-9.240
2007,7,16,7,-8.839
2007,7,16,8,-8.441
2007,7,16,9,-8.133
2007,7,16,10,-7.631
2007,7,16,11,-6.674
2007,7,16,12,-4.809
2007,7,16,13,-3.526
2007,7,16,14,-3.133
2007,7,16,15,-3.338
2007,7,16,16,-3.494
2007,7,16,17,-4.210
2007,7,16,18,-5.784
2007,7,16,19,-6.712
2007,7,16,20,-7.214
2007,7,16,21,-7.353
2007,7,16,22,-6.931
2007,7,16,23,-7.086
2007,7,16,24,-7.154
2007,7,17,1,-7.437
2007,7,17,2,-8.000
2007,7,17,3,-8.496
2007,7,17,4,-9.284
2007,7,17,5,-9.360
2007,7,17,6,-9.409
2007,7,17,7,-10.165
2007,7,17,8,-9.494
2007,7,17,9,-8.515
2007,7,17,10,-7.188
2007,7,17,11,-5.470
2007,7,17,12,-4.280
2007,7,17,13,-3.507
2007,7,17,14,-2.890
2007,7,17,15,-2.884
2007,7,17,16,-2.846
2007,7,17,17,-3.290
2007,7,17,18,-4.545
2007,7,17,19,-5.055
2007,7,17,20,-5.232
2007,7,17,21,-5.180
2007,7,17,22,-4.911
2007,7,17,23,-5.526
2007,7,17,24,-5.724
2007,7,18,1,-5.698
2007,7,18,2,-6.114
2007,7,18,3,-6.384
2007,7,18,4,-6.211
2007,7,18,5,-5.539
2007,7,18,6,-6.370
2007,7,18,7,-6.704
2007,7,18,8,-6.238
2007,7,18,9,-5.218
2007,7,18,10,-5.727
2007,7,18,11,-4.334
2007,7,18,12,-3.172
2007,7,18,13,-3.083
2007,7,18,14,-2.178
2007,7,18,15,-2.024
2007,7,18,16,-2.724
2007,7,18,17,-3.041
2007,7,18,18,-3.582
2007,7,18,19,-3.904
2007,7,18,20,-4.544
2007,7,18,21,-4.865
2007,7,18,22,-5.222
2007,7,18,23,-5.727
2007,7,18,24,-4.416
2007,7,19,1,-4.343
2007,7,19,2,-4.811
2007,7,19,3,-5.620
2007,7,19,4,-6.176
2007,7,19,5,-6.630
2007,7,19,6,-6.940
2007,7,19,7,-7.784
2007,7,19,8,-6.836
2007,7,19,9,-6.474
2007,7,19,10,-5.487
2007,7,19,11,-4.539
2007,7,19,12,-3.023
2007,7,19,13,-1.662
2007,7,19,14,-1.186
2007,7,19,15,-1.419
2007,7,19,16,-3.487
2007,7,19,17,-5.685
2007,7,19,18,-6.253
2007,7,19,19,-6.195
2007,7,19,20,-5.960
2007,7,19,21,-5.513
2007,7,19,22,-4.274
2007,7,19,23,-3.774
2007,7,19,24,-5.015
2007,7,20,1,-5.753
2007,7,20,2,-5.019
2007,7,20,3,-5.184
2007,7,20,4,-5.498
2007,7,20,5,-6.097
2007,7,20,6,-6.574
2007,7,20,7,-6.615
2007,7,20,8,-6.216
2007,7,20,9,-4.083
2007,7,20,10,-4.530
2007,7,20,11,-3.669
2007,7,20,12,-2.630
2007,7,20,13,-2.882
2007,7,20,14,-2.363
2007,7,20,15,-2.396
2007,7,20,16,-2.641
2007,7,20,17,-2.529
2007,7,20,18,-3.217
2007,7,20,19,-3.732
2007,7,20,20,-4.444
2007,7,20,21,-5.264
2007,7,20,22,-5.794
2007,7,20,23,-5.746
2007,7,20,24,-5.676
2007,7,21,1,-5.803
2007,7,21,2,-5.675
2007,7,21,3,-5.791
2007,7,21,4,-6.043
2007,7,21,5,-6.399
2007,7,21,6,-6.683
2007,7,21,7,-7.067
2007,7,21,8,-6.907
2007,7,21,9,-6.673
2007,7,21,10,-6.398
2007,7,21,11,-5.779
2007,7,21,12,-4.023
2007,7,21,13,-2.934
2007,7,21,14,-2.580
2007,7,21,15,-2.219
2007,7,21,16,-2.323
2007,7,21,17,-3.690
2007,7,21,18,-4.257
2007,7,21,19,-5.399
2007,7,21,20,-5.668
2007,7,21,21,-5.758
2007,7,21,22,-5.784
2007,7,21,23,-5.857
2007,7,21,24,-5.826
2007,7,22,1,-6.321
2007,7,22,2,-5.987
2007,7,22,3,-6.318
2007,7,22,4,-6.650
2007,7,22,5,-7.105
2007,7,22,6,-7.437
2007,7,22,7,-7.921
2007,7,22,8,-8.977
2007,7,22,9,-6.231
2007,7,22,10,-5.085
2007,7,22,11,-4.146
2007,7,22,12,-2.938
2007,7,22,13,-2.228
2007,7,22,14,-1.645
2007,7,22,15,-1.514
2007,7,22,16,-1.655
2007,7,22,17,-2.280
2007,7,22,18,-3.537
2007,7,22,19,-4.048
2007,7,22,20,-4.453
2007,7,22,21,-4.535
2007,7,22,22,-4.508
2007,7,22,23,-4.855
2007,7,22,24,-5.771
2007,7,23,1,-5.707
2007,7,23,2,-6.692
2007,7,23,3,-6.973
2007,7,23,4,-7.372
2007,7,23,5,-7.317
2007,7,23,6,-7.440
2007,7,23,7,-7.064
2007,7,23,8,-6.635
2007,7,23,9,-6.620
2007,7,23,10,-5.142
2007,7,23,11,-4.054
2007,7,23,12,-3.255
2007,7,23,13,-2.654
2007,7,23,14,-2.467
2007,7,23,15,-2.414
2007,7,23,16,-2.912
2007,7,23,17,-3.700
2007,7,23,18,-4.476
2007,7,23,19,-5.371
2007,7,23,20,-6.200
2007,7,23,21,-6.902
2007,7,23,22,-6.894
2007,7,23,23,-7.084
2007,7,23,24,-7.240
2007,7,24,1,-7.810
2007,7,24,2,-8.279
2007,7,24,3,-8.845
2007,7,24,4,-9.310
2007,7,24,5,-8.909
2007,7,24,6,-9.165
2007,7,24,7,-9.534
2007,7,24,8,-8.740
2007,7,24,9,-7.812
2007,7,24,10,-6.370
2007,7,24,11,-5.029
2007,7,24,12,-4.388
2007,7,24,13,-3.960
2007,7,24,14,-3.632
2007,7,24,15,-3.522
2007,7,24,16,-3.711
2007,7,24,17,-4.288
2007,7,24,18,-5.765
2007,7,24,19,-5.789
2007,7,24,20,-5.583
2007,7,24,21,-5.893
2007,7,24,22,-5.758
2007,7,24,23,-6.007
2007,7,24,24,-6.399
2007,7,25,1,-7.023
2007,7,25,2,-7.733
2007,7,25,3,-7.933
2007,7,25,4,-7.906
2007,7,25,5,-8.164
2007,7,25,6,-8.025
2007,7,25,7,-7.633
2007,7,25,8,-7.061
2007,7,25,9,-6.278
2007,7,25,10,-5.247
2007,7,25,11,-4.312
2007,7,25,12,-3.485
2007,7,25,13,-3.057
2007,7,25,14,-3.047
2007,7,25,15,-3.366
2007,7,25,16,-3.803
2007,7,25,17,-5.198
2007,7,25,18,-6.195
2007,7,25,19,-6.857
2007,7,25,20,-6.881
2007,7,25,21,-6.715
2007,7,25,22,-6.069
2007,7,25,23,-6.676
2007,7,25,24,-7.443
2007,7,26,1,-7.828
2007,7,26,2,-8.020
2007,7,26,3,-7.603
2007,7,26,4,-7.928
2007,7,26,5,-9.336
2007,7,26,6,-9.835
2007,7,26,7,-9.015
2007,7,26,8,-7.827
2007,7,26,9,-6.955
2007,7,26,10,-6.068
2007,7,26,11,-5.718
2007,7,26,12,-4.959
2007,7,26,13,-3.763
2007,7,26,14,-3.555
2007,7,26,15,-3.791
2007,7,26,16,-4.052
2007,7,26,17,-5.088
2007,7,26,18,-5.648
2007,7,26,19,-5.676
2007,7,26,20,-5.991
2007,7,26,21,-6.702
2007,7,26,22,-7.205
2007,7,26,23,-7.471
2007,7,26,24,-8.470
2007,7,27,1,-8.805
2007,7,27,2,-8.460
2007,7,27,3,-8.514
2007,7,27,4,-8.810
2007,7,27,5,-6.211
2007,7,27,6,-6.610
2007,7,27,7,-5.272
2007,7,27,8,-4.935
2007,7,27,9,-5.242
2007,7,27,10,-5.172
2007,7,27,11,-4.778
2007,7,27,12,-4.346
2007,7,27,13,-3.552
2007,7,27,14,-2.821
2007,7,27,15,-2.554
2007,7,27,16,-3.215
2007,7,27,17,-4.185
2007,7,27,18,-4.710
2007,7,27,19,-5.039
2007,7,27,20,-7.087
2007,7,27,21,-7.496
2007,7,27,22,-7.877
2007,7,27,23,-7.755
2007,7,27,24,-7.718
2007,7,28,1,-7.209
2007,7,28,2,-7.335
2007,7,28,3,-7.970
2007,7,28,4,-8.278
2007,7,28,5,-8.275
2007,7,28,6,-8.814
2007,7,28,7,-7.784
2007,7,28,8,-7.216
2007,7,28,9,-6.951
2007,7,28,10,-6.830
2007,7,28,11,-6.270
2007,7,28,12,-5.447
2007,7,28,13,-4.390
2007,7,28,14,-3.717
2007,7,28,15,-2.956
2007,7,28,16,-3.065
2007,7,28,17,-3.952
2007,7,28,18,-5.513
2007,7,28,19,-6.187
2007,7,28,20,-6.859
2007,7,28,21,-7.523
2007,7,28,22,-7.804
2007,7,28,23,-7.893
2007,7,28,24,-8.268
2007,7,29,1,-7.958
2007,7,29,2,-8.206
2007,7,29,3,-8.431
2007,7,29,4,-9.267
2007,7,29,5,-9.653
2007,7,29,6,-9.315
2007,7,29,7,-8.740
2007,7,29,8,-8.147
2007,7,29,9,-7.365
2007,7,29,10,-6.180
2007,7,29,11,-4.768
2007,7,29,12,-3.516
2007,7,29,13,-2.861
2007,7,29,14,-2.781
2007,7,29,15,-2.945
2007,7,29,16,-2.994
2007,7,29,17,-3.571
2007,7,29,18,-4.964
2007,7,29,19,-5.420
2007,7,29,20,-5.707
2007,7,29,21,-5.871
2007,7,29,22,-5.697
2007,7,29,23,-6.006
2007,7,29,24,-6.032
2007,7,30,1,-6.268
2007,7,30,2,-6.388
2007,7,30,3,-5.902
2007,7,30,4,-6.140
2007,7,30,5,-5.800
2007,7,30,6,-6.126
2007,7,30,7,-6.269
2007,7,30,8,-5.858
2007,7,30,9,-4.762
2007,7,30,10,-3.971
2007,7,30,11,-3.776
2007,7,30,12,-3.016
2007,7,30,13,-2.957
2007,7,30,14,-2.962
2007,7,30,15,-3.088
2007,7,30,16,-3.568
2007,7,30,17,-4.310
2007,7,30,18,-5.563
2007,7,30,19,-5.982
2007,7,30,20,-6.297
2007,7,30,21,-6.291
2007,7,30,22,-6.934
2007,7,30,23,-7.087
2007,7,30,24,-7.362
2007,7,31,1,-7.367
2007,7,31,2,-7.735
2007,7,31,3,-7.612
2007,7,31,4,-7.407
2007,7,31,5,-7.468
2007,7,31,6,-7.463
2007,7,31,7,-7.578
2007,7,31,8,-7.430
2007,7,31,9,-6.664
2007,7,31,10,-5.582
2007,7,31,11,-4.349
2007,7,31,12,-3.439
2007,7,31,13,-3.187
2007,7,31,14,-3.268
2007,7,31,15,-3.456
2007,7,31,16,-3.725
2007,7,31,17,-4.137
2007,7,31,18,-5.082
2007,7,31,19,-6.114
2007,7,31,20,-6.535
2007,7,31,21,-6.827
2007,7,31,22,-6.637
2007,7,31,23,-7.055
2007,7,31,24,-7.369
2007,8,1,1,-8.006
2007,8,1,2,-8.082
2007,8,1,3,-8.252
2007,8,1,4,-7.998
2007,8,1,5,-7.947
2007,8,1,6,-8.000
2007,8,1,7,-7.731
2007,8,1,8,-6.901
2007,8,1,9,-5.922
2007,8,1,10,-4.903
2007,8,1,11,-3.783
2007,8,1,12,-3.319
2007,8,1,13,-3.320
2007,8,1,14,-2.967
2007,8,1,15,-3.137
2007,8,1,16,-3.333
2007,8,1,17,-4.145
2007,8,1,18,-5.041
2007,8,1,19,-5.947
2007,8,1,20,-6.505
2007,8,1,21,-6.732
2007,8,1,22,-6.867
2007,8,1,23,-6.739
2007,8,1,24,-6.905
2007,8,2,1,-7.676
2007,8,2,2,-7.487
2007,8,2,3,-7.681
2007,8,2,4,-7.548
2007,8,2,5,-7.911
2007,8,2,6,-8.132
2007,8,2,7,-8.090
2007,8,2,8,-6.870
2007,8,2,9,-5.864
2007,8,2,10,-4.931
2007,8,2,11,-4.032
2007,8,2,12,-3.356
2007,8,2,13,-3.047
2007,8,2,14,-3.000
2007,8,2,15,-3.220
2007,8,2,16,-3.913
2007,8,2,17,-4.734
2007,8,2,18,-6.082
2007,8,2,19,-6.632
2007,8,2,20,-6.900
2007,8,2,21,-7.074
2007,8,2,22,-7.348
2007,8,2,23,-7.493
2007,8,2,24,-7.429
2007,8,3,1,-7.639
2007,8,3,2,-7.806
2007,8,3,3,-7.951
2007,8,3,4,-8.385
2007,8,3,5,-8.529
2007,8,3,6,-8.606
2007,8,3,7,-8.523
2007,8,3,8,-7.837
2007,8,3,9,-7.056
2007,8,3,10,-5.706
2007,8,3,11,-4.385
2007,8,3,12,-3.769
2007,8,3,13,-3.354
2007,8,3,14,-3.115
2007,8,3,15,-3.084
2007,8,3,16,-3.251
2007,8,3,17,-3.927
2007,8,3,18,-5.180
2007,8,3,19,-6.329
2007,8,3,20,-6.934
2007,8,3,21,-7.368
2007,8,3,22,-7.447
2007,8,3,23,-7.701
2007,8,3,24,-7.817
2007,8,4,1,-8.028
2007,8,4,2,-8.505
2007,8,4,3,-8.551
2007,8,4,4,-8.588
2007,8,4,5,-8.896
2007,8,4,6,-9.281
2007,8,4,7,-9.379
2007,8,4,8,-9.257
2007,8,4,9,-8.060
2007,8,4,10,-7.037
2007,8,4,11,-6.440
2007,8,4,12,-5.059
2007,8,4,13,-4.392
2007,8,4,14,-4.023
2007,8,4,15,-3.985
2007,8,4,16,-4.171
2007,8,4,17,-4.830
2007,8,4,18,-5.594
2007,8,4,19,-6.620
2007,8,4,20,-6.971
2007,8,4,21,-6.880
2007,8,4,22,-7.451
2007,8,4,23,-7.682
2007,8,4,24,-7.848
2007,8,5,1,-7.688
2007,8,5,2,-8.199
2007,8,5,3,-8.395
2007,8,5,4,-8.553
2007,8,5,5,-8.025
2007,8,5,6,-8.621
2007,8,5,7,-8.849
2007,8,5,8,-8.342
2007,8,5,9,-7.192
2007,8,5,10,-5.757
2007,8,5,11,-4.910
2007,8,5,12,-4.157
2007,8,5,13,-3.789
2007,8,5,14,-3.627
2007,8,5,15,-3.456
2007,8,5,16,-3.404
2007,8,5,17,-3.954
2007,8,5,18,-5.110
2007,8,5,19,-6.198
2007,8,5,20,-6.663
2007,8,5,21,-7.225
2007,8,5,22,-7.709
2007,8,5,23,-8.029
2007,8,5,24,-8.016
2007,8,6,1,-7.776
2007,8,6,2,-8.073
2007,8,6,3,-8.086
2007,8,6,4,-7.864
2007,8,6,5,-8.173
2007,8,6,6,-8.666
2007,8,6,7,-8.661
2007,8,6,8,-8.124
2007,8,6,9,-7.300
2007,8,6,10,-5.523
2007,8,6,11,-3.937
2007,8,6,12,-2.918
2007,8,6,13,-2.561
2007,8,6,14,-2.568
2007,8,6,15,-2.631
2007,8,6,16,-2.750
2007,8,6,17,-3.371
2007,8,6,18,-4.771
2007,8,6,19,-5.732
2007,8,6,20,-5.763
2007,8,6,21,-6.079
2007,8,6,22,-6.395
2007,8,6,23,-6.707
2007,8,6,24,-6.678
2007,8,7,1,-6.823
2007,8,7,2,-7.433
2007,8,7,3,-7.851
2007,8,7,4,-8.011
2007,8,7,5,-8.081
2007,8,7,6,-8.246
2007,8,7,7,-8.405
2007,8,7,8,-7.730
2007,8,7,9,-7.226
2007,8,7,10,-6.387
2007,8,7,11,-5.473
2007,8,7,12,-4.854
2007,8,7,13,-4.343
2007,8,7,14,-4.212
2007,8,7,15,-4.351
2007,8,7,16,-4.397
2007,8,7,17,-5.093
2007,8,7,18,-5.994
2007,8,7,19,-6.842
2007,8,7,20,-7.506
2007,8,7,21,-7.799
2007,8,7,22,-8.146
2007,8,7,23,-8.389
2007,8,7,24,-8.230
2007,8,8,1,-7.966
2007,8,8,2,-8.175
2007,8,8,3,-8.151
2007,8,8,4,-7.600
2007,8,8,5,-7.679
2007,8,8,6,-7.341
2007,8,8,7,-7.128
2007,8,8,8,-6.708
2007,8,8,9,-6.372
2007,8,8,10,-5.295
2007,8,8,11,-3.906
2007,8,8,12,-2.859
2007,8,8,13,-2.147
2007,8,8,14,-1.870
2007,8,8,15,-1.800
2007,8,8,16,-1.887
2007,8,8,17,-2.481
2007,8,8,18,-3.408
2007,8,8,19,-4.078
2007,8,8,20,-4.403
2007,8,8,21,-4.784
2007,8,8,22,-5.445
2007,8,8,23,-6.065
2007,8,8,24,-5.557
2007,8,9,1,-5.687
2007,8,9,2,-5.503
2007,8,9,3,-5.817
2007,8,9,4,-6.414
2007,8,9,5,-5.822
2007,8,9,6,-5.387
2007,8,9,7,-4.971
2007,8,9,8,-4.833
2007,8,9,9,-3.904
2007,8,9,10,-3.187
2007,8,9,11,-2.120
2007,8,9,12,-0.695
2007,8,9,13,-0.075
2007,8,9,14,-0.323
2007,8,9,15,-0.755
2007,8,9,16,-1.095
2007,8,9,17,-2.376
2007,8,9,18,-2.775
2007,8,9,19,-3.276
2007,8,9,20,-3.493
2007,8,9,21,-3.728
2007,8,9,22,-4.165
2007,8,9,23,-4.480
2007,8,9,24,-4.571
2007,8,10,1,-3.274
2007,8,10,2,-3.246
2007,8,10,3,-3.595
2007,8,10,4,-3.651
2007,8,10,5,-3.686
2007,8,10,6,-4.059
2007,8,10,7,-4.941
2007,8,10,8,-4.949
2007,8,10,9,-4.230
2007,8,10,10,-3.321
2007,8,10,11,-2.673
2007,8,10,12,-2.224
2007,8,10,13,-2.002
2007,8,10,14,-2.041
2007,8,10,15,-2.212
2007,8,10,16,-2.619
2007,8,10,17,-3.558
2007,8,10,18,-4.985
2007,8,10,19,-5.286
2007,8,10,20,-4.583
2007,8,10,21,-4.972
2007,8,10,22,-5.917
2007,8,10,23,-5.466
2007,8,10,24,-6.117
2007,8,11,1,-6.949
2007,8,11,2,-6.915
2007,8,11,3,-6.743
2007,8,11,4,-7.114
2007,8,11,5,-6.446
2007,8,11,6,-6.805
2007,8,11,7,-6.180
2007,8,11,8,-5.309
2007,8,11,9,-4.921
2007,8,11,10,-4.675
2007,8,11,11,-3.949
2007,8,11,12,-3.375
2007,8,11,13,-3.077
2007,8,11,14,-2.922
2007,8,11,15,-2.695
2007,8,11,16,-2.536
2007,8,11,17,-3.143
2007,8,11,18,-2.173
2007,8,11,19,-1.978
2007,8,11,20,-1.909
2007,8,11,21,-2.414
2007,8,11,22,-2.959
2007,8,11,23,-3.402
2007,8,11,24,-3.780
2007,8,12,1,-4.335
2007,8,12,2,-4.684
2007,8,12,3,-4.587
2007,8,12,4,-4.446
2007,8,12,5,-4.858
2007,8,12,6,-5.140
2007,8,12,7,-5.246
2007,8,12,8,-5.304
2007,8,12,9,-4.364
2007,8,12,10,-3.228
2007,8,12,11,-2.174
2007,8,12,12,-1.945
2007,8,12,13,-1.127
2007,8,12,14,-1.253
2007,8,12,15,-0.931
2007,8,12,16,-1.059
2007,8,12,17,-1.264
2007,8,12,18,-1.949
2007,8,12,19,-1.665
2007,8,12,20,-2.465
2007,8,12,21,-3.441
2007,8,12,22,-2.769
2007,8,12,23,-2.302
2007,8,12,24,-2.451
2007,8,13,1,-2.803
2007,8,13,2,-3.325
2007,8,13,3,-4.449
2007,8,13,4,-4.975
2007,8,13,5,-4.830
2007,8,13,6,-5.159
2007,8,13,7,-5.137
2007,8,13,8,-4.429
2007,8,13,9,-3.643
2007,8,13,10,-3.872
2007,8,13,11,-3.089
2007,8,13,12,-2.266
2007,8,13,13,-1.840
2007,8,13,14,-1.724
2007,8,13,15,-1.955
2007,8,13,16,-2.068
2007,8,13,17,-3.059
2007,8,13,18,-4.530
2007,8,13,19,-5.190
2007,8,13,20,-5.250
2007,8,13,21,-5.473
2007,8,13,22,-5.556
2007,8,13,23,-4.984
2007,8,13,24,-4.208
2007,8,14,1,-4.119
2007,8,14,2,-4.548
2007,8,14,3,-5.033
2007,8,14,4,-6.022
2007,8,14,5,-6.064
2007,8,14,6,-7.696
2007,8,14,7,-6.958
2007,8,14,8,-6.785
2007,8,14,9,-6.521
2007,8,14,10,-5.150
2007,8,14,11,-4.317
2007,8,14,12,-3.574
2007,8,14,13,-3.227
2007,8,14,14,-2.962
2007,8,14,15,-3.145
2007,8,14,16,-3.338
2007,8,14,17,-3.921
2007,8,14,18,-4.917
2007,8,14,19,-4.652
2007,8,14,20,-4.918
2007,8,14,21,-4.610
2007,8,14,22,-4.382
2007,8,14,23,-4.583
2007,8,14,24,-4.831
2007,8,15,1,-4.938
2007,8,15,2,-5.242
2007,8,15,3,-4.935
2007,8,15,4,-5.189
2007,8,15,5,-6.101
2007,8,15,6,-5.801
2007,8,15,7,-5.730
2007,8,15,8,-5.424
2007,8,15,9,-5.401
2007,8,15,10,-4.779
2007,8,15,11,-3.347
2007,8,15,12,-2.580
2007,8,15,13,-2.263
2007,8,15,14,-2.124
2007,8,15,15,-2.431
2007,8,15,16,-2.563
2007,8,15,17,-3.688
2007,8,15,18,-4.277
2007,8,15,19,-3.793
2007,8,15,20,-3.746
2007,8,15,21,-3.871
2007,8,15,22,-4.279
2007,8,15,23,-4.595
2007,8,15,24,-4.708
2007,8,16,1,-4.908
2007,8,16,2,-5.371
2007,8,16,3,-6.167
2007,8,16,4,-7.033
2007,8,16,5,-7.484
2007,8,16,6,-7.272
2007,8,16,7,-7.001
2007,8,16,8,-7.478
2007,8,16,9,-7.460
2007,8,16,10,-6.450
2007,8,16,11,-5.467
2007,8,16,12,-4.999
2007,8,16,13,-4.845
2007,8,16,14,-4.258
2007,8,16,15,-3.415
2007,8,16,16,-3.220
2007,8,16,17,-3.343
2007,8,16,18,-3.494
2007,8,16,19,-3.997
2007,8,16,20,-4.121
2007,8,16,21,-4.038
2007,8,16,22,-3.995
2007,8,16,23,-4.535
2007,8,16,24,-6.124
2007,8,17,1,-7.227
2007,8,17,2,-5.989
2007,8,17,3,-6.895
2007,8,17,4,-7.228
2007,8,17,5,-6.966
2007,8,17,6,-6.921
2007,8,17,7,-6.924
2007,8,17,8,-6.953
2007,8,17,9,-6.635
2007,8,17,10,-6.003
2007,8,17,11,-5.317
2007,8,17,12,-4.236
2007,8,17,13,-3.760
2007,8,17,14,-2.912
2007,8,17,15,-3.889
2007,8,17,16,-4.598
2007,8,17,17,-4.601
2007,8,17,18,-4.825
2007,8,17,19,-4.419
2007,8,17,20,-4.871
2007,8,17,21,-5.480
2007,8,17,22,-6.065
2007,8,17,23,-6.297
2007,8,17,24,-5.934
2007,8,18,1,-5.686
2007,8,18,2,-6.523
2007,8,18,3,-6.998
2007,8,18,4,-7.251
2007,8,18,5,-6.452
2007,8,18,6,-6.484
2007,8,18,7,-6.197
2007,8,18,8,-5.949
2007,8,18,9,-5.578
2007,8,18,10,-5.051
2007,8,18,11,-4.009
2007,8,18,12,-3.235
2007,8,18,13,-2.146
2007,8,18,14,-1.420
2007,8,18,15,-1.375
2007,8,18,16,-1.779
2007,8,18,17,-1.488
2007,8,18,18,-2.637
2007,8,18,19,-3.476
2007,8,18,20,-3.854
2007,8,18,21,-3.755
2007,8,18,22,-3.843
2007,8,18,23,-3.968
2007,8,18,24,-4.144
2007,8,19,1,-4.806
2007,8,19,2,-5.112
2007,8,19,3,-5.288
2007,8,19,4,-5.624
2007,8,19,5,-5.816
2007,8,19,6,-5.923
2007,8,19,7,-5.881
2007,8,19,8,-5.320